EN

Hourly Weather Tamesis

Today, 25 November, Wednesday

Time Temperature Precipitation Wind Pressure Humidity
00:00 +16°C° 1.2 mm 0 mps 626 mmHg 98%
01:00 +16°C° 1.2 mm 0 mps 625 mmHg 98%
02:00 +15°C° 0.5 mm 0 mps 625 mmHg 98%
03:00 +15°C° 0.5 mm 0 mps 625 mmHg 98%
04:00 +15°C° 0.5 mm 0 mps 625 mmHg 98%
05:00 +15°C° 0 mm 0 mps 625 mmHg 97%
06:00 +16°C° 0 mm 0 mps 626 mmHg 96%
07:00 +16°C° 0 mm 0 mps 626 mmHg 96%
08:00 +18°C° 0.2 mm 0 mps 627 mmHg 90%
09:00 +19°C° 0.2 mm 0 mps 628 mmHg 84%
10:00 +21°C° 0.2 mm 0 mps 629 mmHg 78%
11:00 +22°C° 0.9 mm 0 mps 628 mmHg 77%
12:00 +24°C° 0.9 mm 1 mps 628 mmHg 77%
13:00 +25°C° 0.9 mm 1 mps 627 mmHg 76%
14:00 +24°C° 1.3 mm 1 mps 627 mmHg 82%
15:00 +23°C° 1.3 mm 1 mps 626 mmHg 89%
16:00 +21°C° 1.3 mm 1 mps 625 mmHg 95%
17:00 +20°C° 0.9 mm 1 mps 625 mmHg 96%
18:00 +19°C° 0.9 mm 1 mps 625 mmHg 97%
19:00 +18°C° 0.9 mm 1 mps 625 mmHg 98%
20:00 +18°C° 0.6 mm 1 mps 626 mmHg 98%
21:00 +16°C° 0.6 mm 0 mps 626 mmHg 98%
22:00 +16°C° 0.6 mm 0 mps 626 mmHg 98%
23:00 +16°C° 0.2 mm 0 mps 626 mmHg 98%

Tomorrow, 26 November, Thursday

Time Temperature Precipitation Wind Pressure Humidity
00:00 +15°C° 0.2 mm 0 mps 625 mmHg 98%
01:00 +15°C° 0.2 mm 0 mps 625 mmHg 98%
02:00 +15°C° 0.3 mm 0 mps 625 mmHg 98%
03:00 +15°C° 0.3 mm 0 mps 625 mmHg 98%
04:00 +15°C° 0.3 mm 0 mps 625 mmHg 98%
05:00 +15°C° 2.2 mm 0 mps 625 mmHg 99%
06:00 +16°C° 2.2 mm 0 mps 626 mmHg 99%
07:00 +16°C° 2.2 mm 0 mps 626 mmHg 99%
08:00 +16°C° 1 mm 0 mps 626 mmHg 98%
09:00 +17°C° 1 mm 0 mps 627 mmHg 98%
10:00 +17°C° 1 mm 0 mps 627 mmHg 97%
11:00 +18°C° 0.4 mm 0 mps 627 mmHg 91%
12:00 +21°C° 0.4 mm 1 mps 627 mmHg 85%
13:00 +23°C° 0.4 mm 1 mps 627 mmHg 79%
14:00 +22°C° 0.8 mm 1 mps 626 mmHg 82%
15:00 +21°C° 0.8 mm 1 mps 626 mmHg 86%
16:00 +19°C° 0.8 mm 0 mps 625 mmHg 90%
17:00 +18°C° 0.7 mm 0 mps 625 mmHg 93%
18:00 +17°C° 0.7 mm 0 mps 625 mmHg 95%
19:00 +18°C° 0.7 mm 1 mps 625 mmHg 97%
20:00 +16°C° 0.8 mm 0 mps 625 mmHg 97%
21:00 +16°C° 0.8 mm 0 mps 626 mmHg 97%
22:00 +15°C° 0.8 mm 0 mps 626 mmHg 97%
23:00 +15°C° 0.7 mm 0 mps 626 mmHg 97%

Day after tomorrow, 27 November, Friday

Time Temperature Precipitation Wind Pressure Humidity
00:00 +15°C° 0.7 mm 0 mps 626 mmHg 98%
01:00 +15°C° 0.7 mm 0 mps 625 mmHg 98%
02:00 +15°C° 0.6 mm 0 mps 625 mmHg 98%
03:00 +15°C° 0.6 mm 0 mps 625 mmHg 98%
04:00 +15°C° 0.6 mm 0 mps 625 mmHg 98%
05:00 +15°C° 0.1 mm 0 mps 625 mmHg 98%
06:00 +15°C° 0.1 mm 0 mps 625 mmHg 98%
07:00 +15°C° 0.1 mm 0 mps 626 mmHg 98%
08:00 +17°C° 0.2 mm 0 mps 627 mmHg 93%
09:00 +18°C° 0.2 mm 0 mps 627 mmHg 88%
10:00 +20°C° 0.2 mm 0 mps 628 mmHg 84%
11:00 +20°C° 1 mm 0 mps 628 mmHg 84%
12:00 +21°C° 1 mm 0 mps 627 mmHg 84%
13:00 +21°C° 1 mm 0 mps 627 mmHg 84%
14:00 +20°C° 1.1 mm 0 mps 626 mmHg 88%
15:00 +19°C° 1.1 mm 0 mps 625 mmHg 91%
16:00 +20°C° 1.1 mm 1 mps 625 mmHg 95%
17:00 +20°C° 0.5 mm 1 mps 625 mmHg 96%
18:00 +17°C° 0.5 mm 0 mps 625 mmHg 97%
19:00 +16°C° 0.5 mm 0 mps 625 mmHg 97%
20:00 +16°C° 0.3 mm 0 mps 626 mmHg 97%
21:00 +16°C° 0.3 mm 0 mps 626 mmHg 97%
22:00 +16°C° 0.3 mm 0 mps 626 mmHg 97%
23:00 +15°C° 0.6 mm 0 mps 626 mmHg 97%

28 November, Saturday

Time Temperature Precipitation Wind Pressure Humidity
00:00 +15°C° 0.6 mm 0 mps 625 mmHg 98%
01:00 +15°C° 0.6 mm 0 mps 625 mmHg 98%
02:00 +15°C° 0.8 mm 0 mps 625 mmHg 98%
03:00 +15°C° 0.8 mm 0 mps 625 mmHg 98%
04:00 +15°C° 0.8 mm 0 mps 625 mmHg 98%
05:00 +15°C° 0.4 mm 0 mps 625 mmHg 98%
06:00 +15°C° 0.4 mm 0 mps 626 mmHg 98%
07:00 +16°C° 0.4 mm 0 mps 626 mmHg 98%
08:00 +17°C° 0.2 mm 0 mps 627 mmHg 93%
09:00 +18°C° 0.2 mm 0 mps 627 mmHg 89%
10:00 +19°C° 0.2 mm 0 mps 628 mmHg 85%
11:00 +22°C° 0.5 mm 1 mps 627 mmHg 80%
12:00 +24°C° 0.5 mm 1 mps 627 mmHg 75%
13:00 +25°C° 0.5 mm 1 mps 627 mmHg 69%
14:00 +24°C° 0.9 mm 1 mps 626 mmHg 75%
15:00 +23°C° 0.9 mm 1 mps 626 mmHg 81%
16:00 +22°C° 0.9 mm 1 mps 625 mmHg 87%
17:00 +21°C° 0.8 mm 1 mps 625 mmHg 91%
18:00 +20°C° 0.8 mm 1 mps 625 mmHg 94%
19:00 +18°C° 0.8 mm 1 mps 625 mmHg 97%
20:00 +18°C° 0.9 mm 1 mps 625 mmHg 97%
21:00 +16°C° 0.9 mm 0 mps 626 mmHg 98%
22:00 +16°C° 0.9 mm 0 mps 626 mmHg 98%
23:00 +15°C° 0.7 mm 0 mps 626 mmHg 98%

29 November, Sunday

Time Temperature Precipitation Wind Pressure Humidity
00:00 +15°C° 0.7 mm 0 mps 626 mmHg 98%
01:00 +15°C° 0.7 mm 0 mps 625 mmHg 98%
02:00 +15°C° 0.5 mm 0 mps 625 mmHg 98%
03:00 +15°C° 0.5 mm 0 mps 625 mmHg 98%
04:00 +15°C° 0.5 mm 0 mps 625 mmHg 98%
05:00 +15°C° 0.5 mm 0 mps 626 mmHg 98%
06:00 +15°C° 0.5 mm 0 mps 626 mmHg 98%
07:00 +15°C° 0.5 mm 0 mps 626 mmHg 98%
08:00 +16°C° 0.2 mm 0 mps 627 mmHg 95%
09:00 +17°C° 0.2 mm 0 mps 627 mmHg 92%
10:00 +18°C° 0.2 mm 0 mps 628 mmHg 89%
11:00 +20°C° 0.5 mm 0 mps 628 mmHg 81%
12:00 +22°C° 0.5 mm 0 mps 627 mmHg 74%
13:00 +23°C° 0.5 mm 0 mps 627 mmHg 66%
14:00 +24°C° 1.1 mm 1 mps 627 mmHg 72%
15:00 +23°C° 1.1 mm 1 mps 626 mmHg 78%
16:00 +22°C° 1.1 mm 1 mps 625 mmHg 83%
17:00 +21°C° 1.2 mm 1 mps 625 mmHg 88%
18:00 +20°C° 1.2 mm 1 mps 626 mmHg 93%
19:00 +18°C° 1.2 mm 1 mps 626 mmHg 97%
20:00 +16°C° 0.9 mm 0 mps 626 mmHg 97%
21:00 +16°C° 0.9 mm 0 mps 626 mmHg 97%
22:00 +16°C° 0.9 mm 0 mps 627 mmHg 97%
23:00 +16°C° 0.5 mm 0 mps 626 mmHg 98%

30 November, Monday

Time Temperature Precipitation Wind Pressure Humidity
00:00 +15°C° 0.5 mm 0 mps 626 mmHg 98%
01:00 +15°C° 0.5 mm 0 mps 626 mmHg 98%
02:00 +15°C° 0.2 mm 0 mps 626 mmHg 98%
03:00 +15°C° 0.2 mm 0 mps 625 mmHg 98%
04:00 +15°C° 0.2 mm 0 mps 625 mmHg 98%
05:00 +15°C° 0.1 mm 0 mps 626 mmHg 98%
06:00 +15°C° 0.1 mm 0 mps 626 mmHg 98%
07:00 +16°C° 0.1 mm 0 mps 627 mmHg 97%
08:00 +17°C° 0.1 mm 0 mps 628 mmHg 91%
09:00 +21°C° 0.1 mm 1 mps 628 mmHg 84%
10:00 +22°C° 0.1 mm 1 mps 629 mmHg 78%
11:00 +23°C° 0.6 mm 1 mps 628 mmHg 74%
12:00 +24°C° 0.6 mm 1 mps 628 mmHg 70%
13:00 +25°C° 0.6 mm 1 mps 628 mmHg 67%
14:00 +25°C° 1 mm 1 mps 627 mmHg 73%
15:00 +24°C° 1 mm 1 mps 626 mmHg 79%
16:00 +23°C° 1 mm 1 mps 626 mmHg 85%
17:00 +21°C° 1 mm 1 mps 626 mmHg 89%
18:00 +20°C° 1 mm 1 mps 626 mmHg 93%
19:00 +18°C° 1 mm 1 mps 626 mmHg 97%
20:00 +18°C° 0.4 mm 1 mps 626 mmHg 97%
21:00 +18°C° 0.4 mm 1 mps 626 mmHg 97%
22:00 +16°C° 0.4 mm 0 mps 626 mmHg 97%
23:00 +15°C° 0.3 mm 0 mps 626 mmHg 97%
Show more

We Need Your Consent

Meteoprog and our Service Providers may store and access personal data such as cookies, device identifiers or other similar technologies on your device and process such data to personalise content and ads, as well as provide social media features and to analyse the traffic.

  • Store and/or access information on your device

    Cookies, device identifiers or other information can be stored or accessed on your device for the purposes indicated above.

  • Personalised ads and content, ad and content measurement, audience insights, and products development

    Ads and content can be personalised based on a profile. More data can be added to better personalise ads and content. Ad and content performance can be measured. Insights about the audience who saw the ads and content can be derived. Such data can be used to develop or improve user’s experience, systems and software.

By clicking ‘I Agree’ you will allow the use of indicated cookies, device identifiers, web beacons or other similar technologies. Your settings can be changed in the browser on your device.

For certain purposes, legitimate interests may be relied on, rather than consent. You can read more about this in our Privacy and Cookie Policy.